User: anonymous   Login
Location: Unspecified
(0.0000°N, 0.0000°E)
Time: 23:16:28
(UTC+00:00)
Language:

Oscar 14 - Orbit

View from above orbital plane
View from above orbital plane
View from above satellite
View from above satellite

Ground track
Ground track

The orbit data is extracted from the following two-line orbital elements,

1 20437U 90005B   18051.87831404  .00000010  00000-0  20346-4 0  9990
2 20437  98.6919   0.7754 0010915 160.0584 266.9628 14.32281620466805
Epoch (UTC): 20 February 2018 21:04:46
Eccentricity: 0.0010915
inclination: 98.6919°
perigee height: 776 km
apogee height: 792 km
right ascension of ascending node: 0.7754°
argument of perigee: 160.0584°
revolutions per day: 14.32281620
mean anomaly at epoch: 266.9628°
orbit number at epoch: 46680

The dashed part of the orbit path shows where the satellite is in the earth's shadow,  

DLR